Weather History for Pittsfield, IL

Change the Weather History Date:

Tuesday, May 28, 2013

  Actual Average (KUIN) Record (KUIN)
Temperature  
Mean Temperature 72 °F 66 °F  
Max Temperature 79 °F 76 °F 94 °F (1914)
Min Temperature 63 °F 57 °F 38 °F (1992)
Degree Days  
Heating Degree Days 0 2  
Month to date heating degree days 130  
Since 1 July heating degree days 5560  
Cooling Degree Days 7 4  
Month to date cooling degree days 55  
Year to date cooling degree days 73  
Growing Degree Days 22 (Base 50)    
Moisture  
Dew Point 66 °F    
Average Humidity 79    
Maximum Humidity 88    
Minimum Humidity 69    
Precipitation  
Precipitation 0.13 in 0.16 in 1.75 in (1918)
Month to date precipitation 4.08  
Year to date precipitation 13.63  
Sea Level Pressure  
Sea Level Pressure 29.83 in    
Wind  
Wind Speed 10 mph (South)    
Max Wind Speed 33 mph    
Max Gust Speed 47 mph    
Visibility 10 miles    
Events Rain , Thunderstorm    
T = Trace of Precipitation, MM = Missing Value Source: NWS Daily Summary

Daily Weather History Graph

Daily Weather History Graph

Search for Another Location

Airport:

Trip Planner

Search our weather history database for the weather conditions in past years. The results will help you decide how hot, cold, wet, or windy it might be!

Date:

Astronomy

May. 28, 2013 Rise Set
Actual Time 5:39 AM CDT 8:22 PM CDT
Civil Twilight 5:07 AM CDT 8:53 PM CDT
Nautical Twilight 4:28 AM CDT 9:33 PM CDT
Astronomical Twilight 3:43 AM CDT 10:18 PM CDT
Moon 11:46 PM CDT (5/28) 9:27 AM CDT (5/28)
Length of Visible Light 15h 46m
Length of Day
14h 42m
Waning Gibbous, 82% of the Moon is Illuminated
May 28
Waning Gibbous
May 31
Last Quarter
Jun 8
New
Jun 16
First Quarter
Jun 23
Full

Hourly Weather History & Observations

Time (CDT) Temp. Dew Point Humidity Pressure Visibility Wind Dir Wind Speed Gust Speed Precip Events Conditions
12:15 AM 66.2 °F 62.4 °F 88% 29.85 in 10.0 mi South 9.2 mph - N/A   Clear
12:35 AM 66.6 °F 62.6 °F 87% 29.85 in 10.0 mi South 8.1 mph - N/A   Clear
12:55 AM 66.2 °F 62.6 °F 88% 29.85 in 10.0 mi South 8.1 mph - N/A   Clear
1:15 AM 66.9 °F 62.8 °F 87% 29.84 in 10.0 mi South 8.1 mph - N/A   Clear
1:35 AM 67.8 °F 63.0 °F 84% 29.83 in 10.0 mi South 9.2 mph - N/A   Clear
1:55 AM 69.8 °F 63.3 °F 80% 29.81 in 10.0 mi South 9.2 mph - N/A   Clear
2:15 AM 69.3 °F 63.5 °F 82% 29.82 in 10.0 mi South 9.2 mph - N/A   Clear
2:35 AM 69.4 °F 63.5 °F 81% 29.81 in 10.0 mi South 8.1 mph - N/A   Clear
2:55 AM 68.7 °F 63.5 °F 83% 29.80 in 10.0 mi South 8.1 mph - N/A   Clear
3:15 AM 68.5 °F 63.5 °F 84% 29.80 in 10.0 mi SSE 9.2 mph - N/A   Mostly Cloudy
3:35 AM 68.4 °F 63.5 °F 84% 29.79 in 10.0 mi SSE 9.2 mph - N/A   Mostly Cloudy
3:55 AM 68.2 °F 63.5 °F 85% 29.81 in 10.0 mi South 8.1 mph - N/A   Overcast
4:15 AM 68.4 °F 63.5 °F 84% 29.84 in 10.0 mi South 4.6 mph - N/A Thunderstorm Overcast
4:35 AM 68.0 °F 63.5 °F 85% 29.84 in 10.0 mi SSE 4.6 mph - N/A Rain , Thunderstorm Light Thunderstorms and Rain
4:55 AM 67.5 °F 63.5 °F 87% 29.84 in 10.0 mi SSE 6.9 mph - N/A Thunderstorm Overcast
5:15 AM 68.2 °F 63.7 °F 85% 29.85 in 10.0 mi South 5.8 mph - N/A Thunderstorm Overcast
5:35 AM 68.9 °F 63.9 °F 84% 29.85 in 10.0 mi NNW 8.1 mph - N/A Rain Rain
5:55 AM 70.3 °F 63.9 °F 80% 29.84 in 10.0 mi SSW 9.2 mph - N/A Rain Light Rain
6:15 AM 69.1 °F 64.4 °F 85% 29.82 in 10.0 mi South 6.9 mph - 0.01 in Rain Light Rain
6:35 AM 68.9 °F 64.6 °F 86% 29.83 in 10.0 mi South 8.1 mph - 0.01 in Rain Light Rain
6:55 AM 69.4 °F 64.8 °F 85% 29.83 in 10.0 mi South 8.1 mph - 0.01 in   Mostly Cloudy
7:15 AM 70.0 °F 64.9 °F 84% 29.83 in 10.0 mi South 11.5 mph - N/A Thunderstorm Mostly Cloudy
7:35 AM 70.7 °F 64.8 °F 81% 29.83 in 10.0 mi South 10.4 mph - N/A Thunderstorm Thunderstorm
7:55 AM 70.9 °F 64.9 °F 81% 29.83 in 10.0 mi South 10.4 mph - N/A   Overcast
8:15 AM 71.1 °F 65.1 °F 81% 29.83 in 10.0 mi South 12.7 mph - N/A   Overcast
8:35 AM 71.2 °F 65.3 °F 81% 29.82 in 10.0 mi South 13.8 mph 18.4 mph N/A   Overcast
8:55 AM 71.6 °F 65.5 °F 81% 29.82 in 10.0 mi South 9.2 mph - N/A   Overcast
9:15 AM 72.5 °F 66.2 °F 81% 29.82 in 10.0 mi South 9.2 mph - N/A   Overcast
9:35 AM 73.2 °F 66.2 °F 79% 29.82 in 10.0 mi SSE 10.4 mph 16.1 mph N/A   Overcast
9:55 AM 73.4 °F 66.2 °F 78% 29.82 in 10.0 mi South 15.0 mph 18.4 mph N/A   Overcast
10:15 AM 74.3 °F 66.4 °F 76% 29.82 in 10.0 mi South 15.0 mph - N/A   Overcast
10:35 AM 74.3 °F 66.2 °F 76% 29.83 in 10.0 mi South 13.8 mph 21.9 mph N/A   Overcast
10:55 AM 74.3 °F 66.4 °F 76% 29.83 in 10.0 mi South 17.3 mph 20.7 mph N/A   Overcast
11:15 AM 73.8 °F 66.4 °F 78% 29.83 in 10.0 mi South 12.7 mph 17.3 mph N/A   Overcast
11:35 AM 73.6 °F 66.2 °F 78% 29.83 in 10.0 mi South 11.5 mph 19.6 mph N/A   Overcast
11:55 AM 74.3 °F 65.7 °F 74% 29.82 in 10.0 mi South 12.7 mph 18.4 mph N/A Thunderstorm Overcast
12:15 PM 73.8 °F 65.5 °F 75% 29.83 in 10.0 mi South 16.1 mph 21.9 mph N/A   Overcast
12:35 PM 74.3 °F 66.0 °F 75% 29.83 in 10.0 mi South 15.0 mph 24.2 mph N/A   Mostly Cloudy
12:55 PM 72.7 °F 65.7 °F 79% 29.83 in 10.0 mi South 16.1 mph 21.9 mph N/A Thunderstorm Overcast
1:15 PM 71.8 °F 65.8 °F 81% 29.83 in 10.0 mi South 13.8 mph 24.2 mph N/A   Overcast
1:35 PM 72.7 °F 66.7 °F 82% 29.82 in 10.0 mi South 15.0 mph 23.0 mph N/A   Overcast
1:55 PM 74.8 °F 68.2 °F 80% 29.81 in 10.0 mi South 15.0 mph 20.7 mph N/A   Scattered Clouds
2:15 PM 76.3 °F 69.4 °F 79% 29.81 in 10.0 mi South 13.8 mph 24.2 mph N/A   Scattered Clouds
2:35 PM 77.9 °F 70.0 °F 76% 29.81 in 10.0 mi South 15.0 mph 23.0 mph N/A   Scattered Clouds
2:55 PM 77.9 °F 69.6 °F 76% 29.82 in 10.0 mi South 12.7 mph 18.4 mph N/A   Scattered Clouds
3:15 PM 78.4 °F 70.2 °F 76% 29.82 in 10.0 mi South 11.5 mph 17.3 mph N/A   Mostly Cloudy
3:35 PM 79.0 °F 70.3 °F 75% 29.82 in 10.0 mi South 9.2 mph 19.6 mph N/A   Overcast
3:55 PM 79.2 °F 70.0 °F 73% 29.83 in 10.0 mi SSW 11.5 mph 18.4 mph N/A   Overcast
4:15 PM 79.7 °F 70.2 °F 73% 29.81 in 10.0 mi South 13.8 mph 19.6 mph N/A   Overcast
4:35 PM 79.0 °F 70.3 °F 75% 29.82 in 10.0 mi SSW 10.4 mph - N/A   Overcast
4:55 PM 78.8 °F 70.2 °F 75% 29.82 in 10.0 mi SSW 16.1 mph 21.9 mph N/A Rain Light Rain
5:15 PM 77.0 °F 70.7 °F 81% 29.83 in 5.0 mi SSW 13.8 mph - 0.06 in Rain Light Rain
5:35 PM 77.4 °F 70.2 °F 78% 29.82 in 10.0 mi SSW 13.8 mph 19.6 mph 0.06 in   Clear
5:55 PM 77.5 °F 69.1 °F 75% 29.81 in 10.0 mi South 10.4 mph 18.4 mph 0.06 in   Clear
6:15 PM 77.4 °F 69.8 °F 77% 29.81 in 10.0 mi SSW 8.1 mph - N/A   Clear
6:35 PM 77.7 °F 70.0 °F 77% 29.81 in 10.0 mi SSW 10.4 mph - N/A   Clear
6:55 PM 77.9 °F 68.9 °F 74% 29.83 in 10.0 mi SW 13.8 mph 21.9 mph N/A   Clear
7:15 PM 77.4 °F 68.9 °F 75% 29.83 in 10.0 mi SSW 11.5 mph 20.7 mph N/A   Clear
7:35 PM 77.0 °F 68.9 °F 76% 29.79 in 10.0 mi SSW 8.1 mph - N/A   Clear
7:55 PM 76.8 °F 68.2 °F 75% 29.75 in 10.0 mi South 17.3 mph 24.2 mph N/A   Clear
8:15 PM 76.5 °F 65.8 °F 70% 29.76 in 10.0 mi SSW 11.5 mph 23.0 mph N/A   Clear
8:35 PM 76.5 °F 65.5 °F 69% 29.78 in 10.0 mi SSW 12.7 mph 18.4 mph N/A   Clear
8:55 PM 76.1 °F 65.8 °F 70% 29.84 in 10.0 mi WSW 10.4 mph 20.7 mph N/A   Clear
9:15 PM 75.6 °F 66.0 °F 72% 29.85 in 10.0 mi SW 5.8 mph - N/A   Clear
9:35 PM 75.6 °F 66.0 °F 72% 29.85 in 10.0 mi SSW 8.1 mph - N/A   Clear
9:55 PM 76.1 °F 65.8 °F 70% 29.86 in 10.0 mi SSW 6.9 mph - N/A   Clear
10:15 PM 75.6 °F 66.0 °F 72% 29.88 in 10.0 mi NW 5.8 mph - N/A   Clear
10:35 PM 73.0 °F 66.6 °F 80% 29.90 in 10.0 mi NNW 4.6 mph - N/A   Scattered Clouds
10:55 PM 73.9 °F 66.6 °F 78% 29.93 in 10.0 mi WNW 3.5 mph - N/A   Mostly Cloudy
11:15 PM 68.9 °F 59.5 °F 72% 29.95 in 10.0 mi North 33.4 mph 47.2 mph 0.01 in   Overcast
11:35 PM 65.1 °F 59.4 °F 82% 29.97 in 10.0 mi North 13.8 mph 23.0 mph 0.01 in Rain Light Rain
11:55 PM 63.9 °F 59.9 °F 87% 29.96 in 7.0 mi North 8.1 mph - 0.06 in Rain Heavy Rain